星链-33913 (STARLINK-33913)

导读 | 豆包AI

STARLINK-34259是美国SpaceX星链星座的一颗卫星,于2025年8月28日发射升空,归属星链互联网卫星星座网络。星链星座通过大规模低轨卫星部署,为全球用户提供高速互联网接入服务,该卫星加入后,进一步扩充了星链星座的服务容量,助力星座覆盖能力与服务稳定性提升。

基本信息
目录编号:
65368
目录名称:
STARLINK-34259
国际标识:
2025-190T
轨道中心:
EARTH
卫星名称:
星链-33913
卫星全名:
星链-33913 (STARLINK-33913)
卫星状态:
在轨 (已飞行244 天)
发射日期:
2025-08-28 UTC
国别 :
美国 (US)
星等 :
--
轨道信息
数据来源 国际轨道数据 AOE轨道数据
星历时间 2026-04-29T02:52:29+0800
16小时前
查看轨道信息
2026-04-27T12:00:00+0800
2天前
查看轨道信息
半长轴 6853.334km 6853.389km
偏心率 0.0000845 0.000084
轨道倾角 53.158° 53.159°
近地点辐角 89.206° 93.950°
升交点赤经 295.597° 303.121°
平近点角 270.904° 338.305°
近地点 474.617km 474.676km
远地点 475.777km 475.828km
周期 94.105分钟 94.106分钟
每日圈数 15.302061 15.301879
详细信息
固有亮度:
5
最大亮度:
2.5
卫星平台:
Starlink V1.0
覆盖范围:
全球
运营商:
太空探索技术公司
运营商所在国:
美国
制造商(研发单位):
太空探索技术公司
制造商所在国:
美国
使用方式:
暂无
卫星简介
Starlink 计划是 SpaceX 推出的全球卫星互联网项目,通过发射低轨道卫星,为全球尤其是偏远地区提供高速、低延迟的互联网服务。自 2019 年起,Starlink 已部署数千颗卫星,旨在缩小全球数字鸿沟,推动互联网普及。该项目还为军事、航空等行业提供通信支持,带来广泛经济效益。
2D轨道图
3D轨道图
轨道高度分析图
轨道倾角分析图
轨道综合分析图
查看轨道综合分析图